Location: Hylvaty SDH
(49.9612°N, 16.4057°E)
Time: 12:28:15
(UTC+01:00)

Tiros 1 - Pass Details

Date: 09 October 2020
Orbit: 630 x 663 km, 48.4° (Epoch: 28 October)

Event Time Altitude Azimuth Distance (km) Brightness Sun altitude
Rises 11:31:50 0° 219° (SW) 2,915 10.9 31.5°
Reaches altitude 10° 11:34:21 10° 208° (SSW) 2,014 10.4 31.7°
Maximum altitude 11:38:21 29° 148° (SSE) 1,169 10.8 31.9°
Drops below altitude 10° 11:42:24 10° 89° (E) 2,039 10.0 32.1°
Sets 11:44:58 0° 78° (ENE) 2,958 10.6 32.2°
